www.pogodaiklimat.ru

Погода и климат >> Архив погоды >> Корея >> Кунсан


ПОГОДА в Кунсане

  • Прогноз погоды в Кунсане
  • Монитор погоды в Кунсане

АРХИВ ПОГОДЫ в Кунсане

Время (UTC), дата Ветер
(напр.,м/с)
 
Видим.   Явления Облачность Т
(С)
Тd
(С)
f
(%)
Тe
(С)
Тes
(С)
Комфортность P
(гПа)
Po
(гПа)
Тmin
(С)
Tmax
(С)
R
(мм)
R24
(мм)
S
(см)
03 10.06 СЗ 2 17 км 9/9 1000 м
[]
+21.7 +16.4 72 +26 +28 душно 1006.7 1004.0
06 10.06 З 3 13 км 9/9 1000 м
[]
+20.2 +15.6 75 +23 +24 комфорт 1006.5 1003.8
09 10.06 З 3 9000 м 9// 1500 м
[]
+19.4 +16.2 82 +22 +23 комфорт 1006.0 1003.3
12 10.06 СЗ 5 10 км 3/3 1500 м
[]
+18.0 +15.6 86 +18 +18 1007.4 1004.7 +22.3 0.0
15 10.06 СЗ 2 12 км 3/3 1000 м
[]
+17.7 +15.8 89 +18 +18 1008.6 1005.9
18 10.06 СЗ 1 4100 м ясно +16.5 +16.3 99 +17 +17 1008.1 1005.4 0.4
21 10.06 штиль 0 4000 м 9/4 1000 м
[]
+16.6 +16.4 99 +16 +17 1008.7 1006.0
00 11.06 З 1 6000 м 8/8 200 м
[]
+18.4 +17.2 93 +20 +23 1009.7 1007.0 +16.4 2
03 11.06 З 3 8000 м 6/3
[]
+21.5 +17.0 76 +25 +35 комфорт 1009.3 1006.6
06 11.06 СЗ 5 12 км 8/8 300 м
[]
+20.9 +16.7 77 +25 +28 комфорт 1009.0 1006.3
09 11.06 СЗ 4 7000 м 1/0
[]
+20.5 +16.3 77 +24 +25 комфорт 1008.2 1005.5
12 11.06 З 4 11 км ясно +17.8 +14.2 79 +18 +18 1009.4 1006.7 +22.9 0.0
15 11.06 СЗ 1 12 км 3/0
[]
+16.8 +14.2 85 +18 +18 1010.4 1007.7
18 11.06 ЮВ 1 7000 м 1/0
[]
+15.6 +14.7 94 +16 +16 1010.4 1007.7
21 11.06 штиль 0 3700 м ясно +14.4 +14.2 99 +14 +14 1010.8 1008.0
00 12.06 З 4 7000 м ясно +18.9 +15.9 83 +20 +27 1012.1 1009.4 +14.3 0.0
03 12.06 З 3 9000 м 1/0
[]
+22.9 +15.2 62 +27 +43 душно 1011.7 1009.0
06 12.06 З 4 16 км 1/0
[]
+23.2 +15.7 63 +28 +37 душно 1010.5 1007.8
09 12.06 З 3 18 км ясно +22.5 +15.3 64 +26 +28 жарко 1009.6 1006.9
12 12.06 штиль 0 16 км 1/0
[]
+18.7 +15.3 81 +20 +20 1010.4 1007.7 +23.8
15 12.06 В 3 7000 м 3/0
[]
+18.1 +16.4 90 +18 +18 1011.5 1008.8
18 12.06 штиль 0 5000 м 3/0
[]
+17.1 +16.7 97 +17 +17 1011.1 1008.4
21 12.06 штиль 0 3400 м 1/0
[]
+16.4 +16.2 99 +16 +17 1011.3 1008.6
00 13.06 8000 м ясно +21.7 +18.0 79 1011.6 1008.9 +16.2
03 13.06 СЗ 3 10 км ясно +25.6 +16.7 58 +29 +47 душно 1010.1 1007.5
06 13.06 СЗ 5 11 км 6/0
[]
+25.0 +17.2 62 +29 +34 душно 1008.8 1006.1
09 13.06 З 5 11 км 8/0
[]
+22.8 +16.8 69 +28 +28 душно 1008.1 1005.4
12 13.06 З 2 12 км 9/0 2000 м
[]
+19.8 +15.2 75 +23 +23 комфорт 1009.2 1006.5 +26.1
15 13.06 З 1 10 км 8/0
[]
+19.6 +15.0 75 +23 +23 комфорт 1009.3 1006.6
18 13.06 штиль 0 6000 м ?/? +18.1 +16.0 88 +18 +18 1007.4 1004.7
21 13.06 штиль 0 4200 м 10/10
[]
+17.9 +17.0 94 +18 +18 1007.1 1004.4
00 14.06 СЗ 1 н/о ?/? +20.3 +17.1 82 +25 +26 комфорт 1007.0 1004.3 +17.7
03 14.06 СЗ 2 6000 м 10/1 1500 м
[]
+23.2 +16.7 67 +28 +38 душно 1006.2 1003.6
06 14.06 С 2 7000 м ?/? +24.3 +18.0 68 +29 +29 душно 1004.3 1001.7
09 14.06 11 км н/о +24.1 +15.8 60 +27 +28 жарко 1003.1 1000.5
12 14.06 штиль 0 7000 м 4/0
[]
+20.1 +16.9 82 +23 +23 комфорт 1003.5 1000.8 +24.9 0.0
15 14.06 штиль 0 6000 м 1/0
[]
+18.5 +16.9 90 +19 +19 1003.6 1000.9
18 14.06 штиль 0 4300 м 4/0
[]
+17.2 +16.3 94 +17 +17 1001.6 998.9
21 14.06 штиль 0 4000 м 3/0
[]
+16.3 +15.9 97 +16 +17 1002.3 999.6
00 15.06 З 4 11 км 3/0
[]
+21.4 +16.5 74 +25 +31 комфорт 1002.7 1000.0 +16.2 0.0
03 15.06 З 6 10 км 3/0
[]
+22.0 +16.7 72 +26 +33 душно 1001.1 998.4
06 15.06 СЗ 6 10 км ясно +21.9 +16.8 73 +26 +32 душно 999.9 997.3
09 15.06 СЗ 6 8000 м ясно +20.4 +16.4 78 +23 +24 комфорт 1000.0 997.3
12 15.06 СЗ 3 10 км ясно +18.0 +14.6 81 +18 +18 1001.5 998.8
15 15.06 СЗ 2 8000 м ясно +17.4 +14.8 85 +18 +18 1002.8 1000.1
18 15.06 В 1 4000 м ясно +15.6 +15.1 97 +16 +16 1003.4 1000.7
21 15.06 штиль 0 2700 м ясно +15.2 +15.0 99 +15 +15 1005.0 1002.3
00 16.06 Ю 2 7000 м ясно +20.0 +16.4 80 +23 +33 комфорт 1006.9 1004.2
03 16.06 З 2 18 км 3/0
[]
+24.8 +15.1 55 +28 +45 жарко 1007.2 1004.6
06 16.06 З 4 11 км 8/0
[]
+23.4 +17.1 68 +29 +35 душно 1007.8 1005.2
09 16.06 З 4 19 км 8/0
[]
+20.9 +16.5 76 +25 +26 комфорт 1008.3 1005.6
12 16.06 16 км н/о +18.6 +16.9 90 +20 +20 1010.1 1007.4
15 16.06 ЮВ 1 9000 м 3/0
[]
+17.2 +16.7 97 +18 +18 1011.1 1008.4
18 16.06 ЮЗ 2 11 км 8/4 300 м
[]
+17.8 +16.6 93 +18 +18 1012.0 1009.3
21 16.06 штиль 0 4300 м 8/4 300 м
[]
+16.6 +16.4 99 +16 +17 1012.5 1009.8

 

Местоположение метеостанции Кунсан (Корея): широта 36.00 долгота 126.76 высота над уровнем моря 31 м.

В архиве по умолчанию представлена погода в Кунсане за последнюю неделю. Архивные данные за месяц целиком и за предыдущие месяцы, начиная с января 2011 года, Вы можете получить, выбрав интересующий диапазон дат из раскрывающегося списка и нажав кнопку "Ввод!".


*Определитесь, кто Вы:
робот инопланетянин человек

Внимание! Время в таблицах - всемирное. Для получения местного времени необходимо прибавить поправку, которая равна 9 ч.

Смотрите также архив погоды в соседних городах и на ближайших метеорологических станциях:

Погода в Чонджу (Корея) (40 км)
Погода в Порёне (Корея) (41 км)
Погода в Чоныпе (Корея) (51 км)
Погода в Кочхане (Корея) (64 км)
Погода в Тэджоне (Корея) (68 км)
Погода в Хонсоне (Корея) (74 км)
Погода в Намвоне (Корея) (84 км)
Погода в Сосане (Корея) (89 км)
Погода в Чхонане (Корея) (92 км)
Погода в Кванджу (Корея) (93 км)

Пояснения к столбцам:

Ветер - указаны скорость ветра в м/с - средняя за 10 мин, порывы в срок и между сроками (в фигурных скобках) и направление, откуда дует ветер: С - северный, СВ - северо-восточный, В - восточный, ЮВ - юго-восточный, Ю - южный, ЮЗ - юго-западный, З - западный, СЗ - северо-западный.
Видимость - горизонтальная дальность видимости в метрах или километрах. При видимости от 1 до 10 км при отсутствии осадков обычно наблюдается дымка, при ухудшении видимости до 1 км и менее - туман. В сухую погоду видимость может ухудшаться дымом, пылью или мглою.
Явления - указаны атмосферные явления, наблюдавшиеся в срок или в последний час перед сроком; фигурными скобками обозначены явления, наблюдавшиеся между сроками (за 1-3 часа до срока); квадратными скобками обозначены град или гололедные отложения с указанием их диаметра в мм.
Облачность - указаны через наклонную черту общая и нижняя облачность в баллах и высота нижней границы облаков в метрах; квадратными скобками обозначены формы облаков: Ci - перистые, Cs - перисто-слоистые, Cc - перисто-кучевые, Ac - высококучевые, As - высокослоистые, Sc - слоисто-кучевые, Ns - слоисто-дождевые, Cu - кучевые, Cb - кучево-дождевые. Подробнее классификацию облаков см. в Атласе облаков (PDF).
T - Температура воздуха - температура, измеренная на высоте 2 м над землей.
Td - Температура точки росы - температура, при понижении до которой содержащийся в воздухе водяной пар достигнет насыщения.
f - Относительная влажность воздуха - влажноcть воздуха, измеренная на высоте 2 м над землей.
Te - Эффективная температура - температура, которую ощущает одетый по сезону человек в тени. Характеристика душности погоды. При расчете учитывается влияние влажности воздуха и скорости ветра на теплоощущения человека.
Tes - Эффективная температура на солнце - температура, которую ощущает человек, с поправкой на солнечный нагрев. Характеристика знойности погоды. Зависит от высоты солнца над горизонтом, облачности и скорости ветра. Ночью, в пасмурную погоду, а также при ветре 12 м/с и более поправка равна нулю.
P - Атмосферное давление - приведенное к уровню моря атмосферное давление.
Po - Атмосферное давление - измеренное на уровне метеостанции атмосферное давление.
Tmin - Минимальная температура - минимум температуры воздуха на высоте 2 м над землей.
Tmax - Максимальная температура - максимум температуры воздуха на высоте 2 м над землей.
R - Количество осадков - Количество выпавших осадков за период времени, мм. При наведении курсора мыши на число - период времени, за который выпало указанное количество осадков.
R24 - Количество осадков - Количество выпавших осадков за 24 часа, мм.
S - Снежный покров - Высота снежного покрова, см. При наведении курсора мыши на число - состояние снежного покрова и степень покрытия местности в баллах.